Hollywood, FL

10:48 AM EST on December 08, 2019 (GMT -0500)
North Perry

Weather History for KHWO - August, 2019

Change the Weather History Date:

Monday, August 12, 2019

  Actual Average (WUND) Record (WUND)
Temperature  
Mean Temperature 84 °F -  
Max Temperature 91 °F - - (-1)
Min Temperature 78 °F - - (-1)
Cooling Degree Days 19    
Growing Degree Days 34 (Base 50)    
Moisture  
Dew Point 75 °F    
Average Humidity 76    
Maximum Humidity 90    
Minimum Humidity 59    
Precipitation  
Precipitation 0.00 in - - ()
Sea Level Pressure  
Sea Level Pressure 29.98 in    
Wind  
Wind Speed 5 mph (SSW)    
Max Wind Speed 16 mph    
Max Gust Speed 28 mph    
Visibility 10 miles    
Events Rain , Thunderstorm    
Averages and records for this station are not official NWS values.
T = Trace of Precipitation, MM = Missing Value Source: NWS Daily Summary

Daily Weather History Graph

Daily Weather History Graph

Search for Another Location

Airport or City:

Astronomy

Aug. 12, 2019 Rise Set
Actual Time 6:52 AM EDT 7:59 PM EDT
Civil Twilight 6:27 AM EDT 8:23 PM EDT
Nautical Twilight 5:59 AM EDT 8:52 PM EDT
Astronomical Twilight 5:29 AM EDT 9:21 PM EDT
Moon 6:15 PM EDT (8/12) 4:13 AM EDT (8/12)
Length of Visible Light 13h 55m
Length of Day
13h 07m
Waxing Gibbous, 93% of the Moon is Illuminated
Aug 12
Waxing Gibbous
Aug 15
Full
Aug 23
Last Quarter
Aug 30
New
Sep 5
First Quarter

Hourly Weather History & Observations

Time (EDT) Temp. Heat Index Dew Point Humidity Pressure Visibility Wind Dir Wind Speed Gust Speed Precip Events Conditions
12:53 AM 80.1 °F 85.1 °F 75.0 °F 85% 29.99 in 10.0 mi SSE 4.6 mph - N/A   Clear
1:53 AM 79.0 °F - 75.0 °F 88% 29.99 in 10.0 mi Calm Calm - N/A   Clear
2:53 AM 79.0 °F - 75.0 °F 88% 29.98 in 10.0 mi Calm Calm - N/A   Clear
3:53 AM 78.1 °F - 75.0 °F 90% 29.96 in 10.0 mi Calm Calm - N/A   Clear
4:53 AM 79.0 °F - 75.0 °F 88% 29.94 in 10.0 mi Calm Calm - N/A   Clear
5:53 AM 79.0 °F - 75.0 °F 88% 29.95 in 10.0 mi Calm Calm - N/A   Clear
6:53 AM 79.0 °F - 75.0 °F 88% 29.97 in 10.0 mi Calm Calm - N/A   Clear
7:53 AM 80.1 °F 85.4 °F 75.9 °F 87% 29.98 in 10.0 mi Calm Calm - N/A   Clear
8:53 AM 84.9 °F 95.3 °F 77.0 °F 77% 29.99 in 10.0 mi SSW 4.6 mph - N/A   Clear
9:53 AM 87.1 °F 98.8 °F 77.0 °F 72% 30.01 in 10.0 mi WSW 8.1 mph - N/A   Scattered Clouds
10:53 AM 89.1 °F 101.4 °F 77.0 °F 67% 30.01 in 10.0 mi SW 4.6 mph - N/A   Scattered Clouds
11:53 AM 89.1 °F 100.2 °F 75.9 °F 65% 29.99 in 10.0 mi SE 6.9 mph - N/A   Scattered Clouds
12:09 PM 89.1 °F 100.2 °F 75.9 °F 65% 29.99 in 10.0 mi ESE 6.9 mph - N/A Thunderstorm Mostly Cloudy
12:48 PM 87.8 °F 97.6 °F 75.2 °F 66% 29.99 in 10.0 mi ESE 8.1 mph - N/A Thunderstorm Thunderstorm
12:53 PM 88.0 °F 98.5 °F 75.9 °F 67% 29.99 in 10.0 mi SE 11.5 mph - N/A Thunderstorm Thunderstorm
1:03 PM 87.1 °F 97.3 °F 75.9 °F 69% 29.99 in 10.0 mi SE 13.8 mph - N/A Thunderstorm Partly Cloudy
1:35 PM 86.0 °F 96.0 °F 75.9 °F 72% 29.98 in 10.0 mi SE 11.5 mph - N/A   Mostly Cloudy
1:53 PM 87.1 °F 96.3 °F 75.0 °F 67% 29.98 in 10.0 mi SSE 15.0 mph - N/A   Mostly Cloudy
2:38 PM 90.0 °F 100.2 °F 75.0 °F 61% 29.96 in 10.0 mi SSE 12.7 mph - N/A Thunderstorm Clear
2:53 PM 89.1 °F 97.0 °F 73.0 °F 59% 29.96 in 10.0 mi South 10.4 mph - N/A Thunderstorm Clear
3:48 PM 82.4 °F 88.2 °F 73.4 °F 74% 29.98 in 10.0 mi NW 16.1 mph 27.6 mph N/A Thunderstorm Mostly Cloudy
3:53 PM 81.0 °F 86.2 °F 73.9 °F 79% 29.98 in 10.0 mi NNW 15.0 mph - N/A Thunderstorm Scattered Clouds
4:20 PM 81.0 °F 86.7 °F 75.0 °F 82% 29.97 in 10.0 mi West 5.8 mph - 0.00 in Rain Light Rain
4:53 PM 82.9 °F 90.2 °F 75.0 °F 77% 29.96 in 10.0 mi WNW 9.2 mph - 0.00 in   Clear
5:53 PM 84.9 °F 93.3 °F 75.0 °F 72% 29.96 in 10.0 mi NW 4.6 mph - N/A   Clear
6:53 PM 84.0 °F 92.6 °F 75.9 °F 76% 29.97 in 10.0 mi NW 8.1 mph - N/A   Scattered Clouds
7:53 PM 82.0 °F 88.6 °F 75.0 °F 79% 29.98 in 10.0 mi NNE 3.5 mph - N/A   Clear
8:53 PM 82.0 °F 88.6 °F 75.0 °F 79% 29.99 in 10.0 mi Calm Calm - N/A   Clear
9:53 PM 82.0 °F 88.6 °F 75.0 °F 79% 29.98 in 10.0 mi NNW 3.5 mph - N/A   Clear
10:53 PM 81.0 °F 86.7 °F 75.0 °F 82% 29.97 in 10.0 mi Calm Calm - N/A   Clear
11:53 PM 81.0 °F 86.7 °F 75.0 °F 82% 29.98 in 10.0 mi Calm Calm - N/A   Clear